Location: ??
(35.5052°N, 139.7262°E)
Time: 19:56:24
(UTC+00:00)

N. Korean satellite - Pass Details

Date: 02 October 2021
Orbit: 450 x 495 km, 97.3° (Epoch: 25 October)

Event Time Altitude Azimuth Distance (km) Brightness Sun altitude
Rises 19:06:33 0° 29° (NNE) 2,558 10.8 -19.2°
Reaches altitude 10° 19:09:05 10° 48° (NE) 1,680 10.1 -18.7°
Maximum altitude 19:11:43 19° 95° (E) 1,224 9.5 -18.2°
Drops below altitude 10° 19:14:21 10° 142° (SE) 1,682 9.7 -17.7°
Sets 19:16:52 0° 161° (SSE) 2,563 10.4 -17.2°
